GW1550 Weather Reports


time (UTC)temp
F
wind
direction
speed
knots
gust
knots
rain 1hr
in
rain 24hr
in
rain mn
in
humidity
%
barometer
mb
20260507052515 30 73 0.0 0.0 0.00 0.00 0.00 95
20260507052011 31 3 0.0 0.0 0.00 0.00 0.00 95
20260507051509 31 17 0.0 0.0 0.00 0.00 0.00 95
20260507051006 31 325 0.0 0.0 0.00 0.00 0.00 95
20260507050502 32 33 0.0 0.0 0.00 0.00 0.00 95
20260507045959 32 47 0.0 0.0 0.00 0.00 0.00 95
20260507045455 31 314 0.0 0.0 0.00 0.00 0.00 95
20260507044953 31 58 0.0 0.0 0.00 0.00 0.00 95
20260507044449 31 1 0.0 0.0 0.00 0.00 0.00 95
20260507043945 32 42 0.0 0.0 0.00 0.00 0.00 95
20260507043442 31 56 0.0 0.0 0.00 0.00 0.00 94
20260507042938 32 106 0.0 0.0 0.00 0.00 0.00 94
20260507042435 32 38 0.0 0.0 0.00 0.00 0.00 94
20260507041931 32 59 0.0 0.0 0.00 0.00 0.00 94
20260507041428 32 38 0.0 0.0 0.00 0.00 0.00 94
20260507040925 32 22 0.0 0.0 0.00 0.00 0.00 94
20260507040421 33 27 0.0 0.0 0.00 0.00 0.00 94
20260507035917 33 10 0.0 0.0 0.00 0.00 0.00 94
20260507035413 32 64 0.0 0.0 0.00 0.00 0.00 93
20260507034910 33 19 0.0 0.0 0.00 0.00 0.00 93
20260507034407 33 51 0.0 0.0 0.00 0.00 0.00 93
20260507033905 33 340 0.0 0.0 0.00 0.00 0.00 92
20260507033403 34 54 0.0 0.0 0.00 0.00 0.00 91
20260507032900 34 73 0.0 0.0 0.00 0.00 0.00 91
20260507032356 35 20 0.0 0.0 0.00 0.00 0.00 91
20260507031852 35 338 0.0 0.0 0.00 0.00 0.00 91
20260507031349 35 356 0.0 0.0 0.00 0.00 0.00 91
20260507030846 35 14 0.0 0.0 0.00 0.00 0.00 91
20260507030344 35 13 0.0 0.0 0.00 0.00 0.00 91
20260507025840 35 357 0.0 0.0 0.00 0.00 0.00 91
20260507025338 35 331 0.0 0.0 0.00 0.00 0.00 92
20260507024835 35 326 0.0 0.0 0.00 0.00 0.00 92
20260507024332 35 30 0.0 0.0 0.00 0.00 0.00 92
20260507023828 35 39 0.0 0.0 0.00 0.00 0.00 92
20260507023325 36 20 0.0 0.0 0.00 0.00 0.00 91
20260507022822 36 28 0.0 0.0 0.00 0.00 0.00 90
20260507022319 36 29 0.0 0.0 0.00 0.00 0.00 89
20260507021815 37 65 0.0 0.0 0.00 0.00 0.00 88
20260507021310 37 76 0.0 0.0 0.00 0.00 0.00 87
20260507020809 37 72 0.0 0.0 0.00 0.00 0.00 84
20260507020305 38 66 0.0 0.0 0.00 0.00 0.00 83
20260507015802 39 89 0.0 0.0 0.00 0.00 0.00 82
20260507015259 39 89 0.0 0.0 0.00 0.00 0.00 81
20260507014757 40 110 0.0 0.0 0.00 0.00 0.00 79
20260507014253 40 89 0.0 0.0 0.00 0.00 0.00 79
20260507013749 41 69 0.0 0.0 0.00 0.00 0.00 76
20260507013247 42 325 0.0 0.0 0.00 0.00 0.00 73
20260507012744 44 110 0.0 0.0 0.00 0.00 0.00 71
20260507012245 44 296 0.0 0.0 0.00 0.00 0.00 69
20260507011743 43 320 0.0 0.0 0.00 0.00 0.00 70
20260507011239 44 313 0.0 0.0 0.00 0.00 0.00 70
20260507010738 44 217 0.0 0.0 0.00 0.00 0.00 68
20260507010235 44 185 0.0 0.0 0.00 0.00 0.00 68
20260507005733 44 113 0.0 0.0 0.00 0.00 0.00 67
20260507005229 44 294 0.0 0.0 0.00 0.00 0.00 68
20260507004725 44 279 0.0 0.0 0.00 0.00 0.00 66
20260507004223 44 276 0.0 0.0 0.00 0.00 0.00 66
20260507003719 44 208 0.0 0.0 0.00 0.00 0.00 65
20260507003214 44 233 0.0 0.0 0.00 0.00 0.00 66
20260507002711 45 245 0.0 0.0 0.00 0.00 0.00 66
20260507002207 43 232 0.0 0.0 0.00 0.00 0.00 69
20260507001704 45 172 0.0 0.0 0.00 0.00 0.00 70
20260507001201 44 122 0.0 0.0 0.00 0.00 0.00 71
20260507000657 42 237 0.0 0.0 0.00 0.00 0.00 75
20260507000153 41 14 0.0 0.0 0.00 0.00 0.00 78
20260506235650 42 4 0.0 0.0 0.00 0.00 0.00 75
20260506235145 43 343 0.0 0.0 0.00 0.00 0.00 76
20260506234643 41 23 0.0 0.0 0.00 0.00 0.00 81
20260506234140 40 203 0.0 0.0 0.00 0.00 0.00 81
20260506233637 40 15 0.0 0.0 0.00 0.00 0.00 83
20260506233134 38 20 0.0 0.0 0.00 0.00 0.00 85
20260506232630 39 89 0.0 0.0 0.00 0.00 0.00 86
20260506232125 39 53 0.0 0.0 0.00 0.00 0.00 87
20260506231623 39 7 0.0 0.0 0.00 0.00 0.00 88
20260506231121 39 31 0.0 0.0 0.00 0.00 0.00 89
20260506230618 38 83 0.0 0.0 0.00 0.00 0.00 90
20260506230115 38 73 0.0 0.0 0.00 0.00 0.00 91
20260506225611 38 78 0.0 0.0 0.00 0.00 0.00 92
20260506225108 38 92 0.0 0.0 0.00 0.00 0.00 93
20260506224604 37 83 0.0 0.0 0.00 0.00 0.00 94
20260506224101 37 86 0.0 0.9 0.00 0.00 0.00 94
20260506223557 37 80 0.0 0.9 0.00 0.00 0.00 93
20260506223053 37 94 0.0 0.9 0.00 0.00 0.00 93
20260506222550 37 94 0.0 0.9 0.00 0.00 0.00 92
20260506222047 38 88 0.0 0.9 0.00 0.00 0.00 91
20260506221544 38 100 0.0 0.9 0.00 0.00 0.00 89
20260506221042 39 89 0.0 0.9 0.00 0.00 0.00 85
20260506220538 39 119 0.0 0.9 0.00 0.00 0.00 85
20260506220034 39 112 0.0 0.9 0.00 0.00 0.00 85
20260506215531 39 147 0.0 0.9 0.00 0.00 0.00 85
20260506215026 38 143 0.9 0.9 0.00 0.00 0.00 84
20260506214524 39 138 0.0 0.9 0.00 0.00 0.00 87
20260506214021 38 122 0.0 0.9 0.00 0.00 0.00 89
20260506213519 37 267 0.0 0.0 0.00 0.00 0.00 88
20260506213016 37 204 0.0 0.9 0.00 0.00 0.00 91
20260506212512 37 221 0.0 0.9 0.00 0.00 0.00 94
20260506212007 35 153 0.0 0.9 0.00 0.00 0.00 94
20260506211503 36 192 0.0 0.9 0.00 0.00 0.00 94
20260506211001 36 204 0.0 0.9 0.00 0.00 0.00 95
20260506210456 37 179 0.0 0.9 0.00 0.00 0.00 96
20260506205954 37 184 0.0 0.0 0.00 0.00 0.00 96
20260506205450 35 207 0.0 0.9 0.00 0.00 0.00 96
20260506204946 35 211 0.0 0.9 0.00 0.00 0.00 97
20260506204444 36 231 0.0 0.9 0.00 0.00 0.00 96
20260506203941 36 180 0.0 0.9 0.00 0.00 0.00 96
20260506203438 36 142 0.0 0.9 0.00 0.00 0.00 96
20260506202935 36 145 0.9 0.9 0.00 0.00 0.00 95
20260506202432 35 154 0.0 0.9 0.00 0.00 0.00 95
20260506201929 35 176 0.0 0.9 0.00 0.00 0.00 95
20260506201426 36 143 0.9 0.9 0.00 0.00 0.00 96
20260506200923 35 136 0.0 0.9 0.00 0.00 0.00 96
20260506200419 36 168 0.0 0.9 0.00 0.00 0.00 96
20260506195916 35 161 0.0 0.9 0.00 0.00 0.00 96
20260506195413 35 138 0.9 0.9 0.00 0.00 0.00 96
20260506194909 37 147 0.0 0.9 0.00 0.00 0.00 96
20260506194406 36 147 0.9 0.9 0.00 0.00 0.00 97
20260506193903 35 177 0.0 0.9 0.00 0.00 0.00 97
20260506193400 37 131 0.0 0.9 0.00 0.00 0.00 98
20260506192857 37 158 0.0 0.9 0.00 0.00 0.00 98
20260506192354 35 155 0.0 0.9 0.00 0.00 0.00 98
20260506191851 34 139 0.9 0.9 0.00 0.00 0.00 99
20260506191347 36 129 0.9 0.9 0.00 0.00 0.00 99
20260506190844 35 145 0.9 0.9 0.00 0.00 0.00 99
20260506190340 35 165 0.0 0.9 0.00 0.00 0.00 99
20260506185837 35 115 0.0 0.9 0.00 0.00 0.00 99
20260506185334 35 121 0.0 0.0 0.00 0.00 0.00 99
20260506184831 33 137 0.0 0.9 0.00 0.00 0.00 99
20260506184328 35 101 0.0 0.9 0.00 0.00 0.00 99
20260506183826 36 89 0.0 0.9 0.00 0.00 0.00 99
20260506183320 35 114 0.0 0.9 0.00 0.00 0.00 99
20260506182818 34 136 0.9 0.9 0.00 0.00 0.00 99
20260506182315 33 118 0.0 0.9 0.00 0.00 0.00 98
20260506181813 33 103 0.0 0.9 0.00 0.00 0.00 98
20260506181311 33 104 0.0 0.9 0.00 0.00 0.00 97
20260506180808 34 93 0.9 0.9 0.00 0.00 0.00 97
20260506180303 34 139 0.9 0.9 0.00 0.00 0.00 96
20260506175800 34 88 0.0 0.9 0.00 0.00 0.00 96
20260506175257 34 92 0.9 0.9 0.00 0.00 0.00 96
20260506174754 33 88 0.9 0.9 0.00 0.00 0.00 96
20260506174251 33 92 0.9 0.9 0.00 0.00 0.00 96
20260506173749 33 91 0.9 0.9 0.00 0.00 0.00 96
20260506173246 33 103 0.0 0.9 0.00 0.00 0.00 95
20260506172742 33 93 0.0 0.9 0.00 0.00 0.00 95
20260506172239 34 105 0.9 1.7 0.00 0.00 0.00 95
20260506171737 34 92 0.0 0.9 0.00 0.00 0.00 94
20260506171234 34 83 0.0 0.9 0.00 0.00 0.00 93
20260506170731 34 93 0.0 0.9 0.00 0.00 0.00 92
20260506170228 35 88 0.9 0.9 0.00 0.00 0.00 92
20260506165726 35 77 0.0 0.9 0.00 0.00 0.00 91
20260506165223 35 86 0.9 0.9 0.00 0.00 0.00 91
20260506164720 35 33 0.0 1.7 0.00 0.00 0.00 90
20260506164217 35 1 0.0 0.9 0.00 0.00 0.00 90
20260506163714 36 4 0.0 1.7 0.00 0.00 0.00 89
20260506163208 36 86 0.9 0.9 0.00 0.00 0.00 90
20260506162705 35 83 0.0 0.9 0.00 0.00 0.00 91
20260506162202 35 97 0.0 1.7 0.00 0.00 0.00 91
20260506161700 35 76 0.0 0.9 0.00 0.00 0.00 91
20260506161156 36 93 0.9 0.9 0.00 0.00 0.00 92
20260506160654 35 69 0.0 0.9 0.00 0.00 0.00 92
20260506160151 35 86 0.9 0.9 0.00 0.00 0.00 92
20260506155649 35 94 0.9 0.9 0.00 0.00 0.00 92
20260506155146 35 87 0.9 2.6 0.00 0.00 0.00 94
20260506153248 35 101 0.9 1.7 0.00 0.00 0.00 95
20260506152745 35 87 0.9 1.7 0.00 0.00 0.00 96
20260506152242 34 102 0.9 1.7 0.00 0.00 0.00 96
20260506151741 34 104 0.9 1.7 0.00 0.00 0.00 96
20260506151237 34 88 0.9 1.7 0.00 0.00 0.00 96
20260506150734 35 94 0.9 0.9 0.00 0.00 0.00 96
20260506150231 34 98 0.9 0.9 0.00 0.00 0.00 97
20260506145728 34 102 0.9 0.9 0.00 0.00 0.00 97
20260506145224 33 85 0.0 0.9 0.00 0.00 0.00 97
20260506144722 33 97 0.9 0.9 0.00 0.00 0.00 97
20260506144219 33 98 0.9 0.9 0.00 0.00 0.00 97
20260506143716 33 96 0.0 0.9 0.00 0.00 0.00 97
20260506143214 33 81 0.9 0.9 0.00 0.00 0.00 97
20260506142712 33 106 0.9 0.9 0.00 0.00 0.00 97
20260506142210 33 98 0.9 0.9 0.00 0.00 0.00 97
20260506141708 33 102 0.0 0.9 0.00 0.00 0.00 97
20260506141206 33 87 0.9 0.9 0.00 0.00 0.00 97
20260506140703 33 80 0.0 0.9 0.00 0.00 0.00 97
20260506140200 33 92 0.9 0.9 0.00 0.00 0.00 97
20260506135657 33 78 0.9 0.9 0.00 0.00 0.00 96
20260506135153 33 92 0.9 0.9 0.00 0.00 0.00 96
20260506134650 33 83 0.9 0.9 0.00 0.00 0.00 96
20260506134146 33 94 0.9 0.9 0.00 0.00 0.00 96
20260506133643 33 83 0.0 1.7 0.00 0.00 0.00 96
20260506133140 33 85 0.9 0.9 0.00 0.00 0.00 96
20260506132637 33 73 0.0 1.7 0.00 0.00 0.00 96
20260506132134 33 337 0.0 0.0 0.00 0.00 0.00 96
20260506131631 33 29 0.0 0.9 0.00 0.00 0.00 95
20260506131127 33 64 0.0 0.9 0.00 0.00 0.00 95
20260506130624 33 31 0.9 0.9 0.00 0.00 0.00 94
20260506130122 34 0 0.0 0.9 0.00 0.00 0.00 94
20260506125620 34 357 0.0 0.9 0.00 0.00 0.00 94
20260506125117 34 48 0.0 0.9 0.00 0.00 0.00 94
20260506124615 34 53 0.0 0.9 0.00 0.00 0.00 94
20260506124113 34 77 0.0 0.9 0.00 0.00 0.00 94
20260506123610 34 59 0.9 0.9 0.00 0.00 0.00 93
20260506123109 34 31 0.0 0.9 0.00 0.00 0.00 93
20260506122605 34 58 0.0 0.9 0.00 0.00 0.00 93
20260506122103 35 13 0.0 0.9 0.00 0.00 0.00 92
20260506121600 35 328 0.0 0.9 0.00 0.00 0.00 92
20260506121056 35 38 0.0 0.9 0.00 0.00 0.00 91
20260506120555 35 91 0.0 0.9 0.00 0.00 0.00 91
20260506120051 35 84 0.0 0.9 0.00 0.00 0.00 91
20260506115549 35 94 0.0 0.9 0.00 0.00 0.00 91
20260506115048 35 33 0.9 0.9 0.00 0.00 0.00 91
20260506114545 35 89 0.0 0.0 0.00 0.00 0.00 90
20260506114043 35 98 0.0 0.0 0.00 0.00 0.00 90
20260506113541 35 101 0.0 0.9 0.00 0.00 0.00 89
20260506113038 36 27 0.0 0.9 0.00 0.00 0.00 89
20260506112534 36 351 0.0 0.9 0.00 0.00 0.00 89
20260506112031 36 353 0.0 0.9 0.00 0.00 0.00 89
20260506111530 36 78 0.0 0.9 0.00 0.00 0.00 88
20260506111026 36 104 0.0 0.0 0.00 0.00 0.00 88
20260506110524 36 58 0.0 0.9 0.00 0.00 0.00 87
20260506110021 37 84 0.0 0.9 0.00 0.00 0.00 87
20260506105517 37 343 0.0 0.9 0.00 0.00 0.00 87
20260506105015 36 82 0.0 0.9 0.00 0.00 0.00 88
20260506104513 36 50 0.0 0.9 0.00 0.00 0.00 88
20260506104010 36 19 0.0 0.9 0.00 0.00 0.00 88
20260506103507 37 14 0.0 0.9 0.00 0.00 0.00 88
20260506103004 37 45 0.0 0.9 0.00 0.00 0.00 88
20260506102502 36 27 0.0 0.9 0.00 0.00 0.00 88
20260506101959 36 52 0.0 0.9 0.00 0.00 0.00 89
20260506101455 36 28 0.9 0.9 0.00 0.00 0.00 90
20260506100953 36 7 0.9 0.9 0.00 0.00 0.00 92
20260506100451 35 340 0.0 0.9 0.00 0.00 0.00 94
20260506095949 35 43 0.0 0.9 0.00 0.00 0.00 96
20260506095447 35 37 0.0 0.9 0.00 0.00 0.00 97
20260506094943 35 60 0.0 0.9 0.00 0.00 0.00 98
20260506094442 35 38 0.0 0.9 0.00 0.00 0.00 98
20260506093939 35 42 0.0 0.9 0.00 0.00 0.00 99
20260506093437 35 43 0.0 0.9 0.00 0.00 0.00 99
20260506092934 35 18 0.0 0.9 0.00 0.00 0.00 99
20260506092432 35 47 0.0 0.9 0.00 0.00 0.00 99
20260506091928 35 35 0.0 0.9 0.00 0.00 0.00 99
20260506091427 35 15 0.0 0.9 0.00 0.00 0.00 99
20260506090924 35 54 0.0 0.9 0.00 0.00 0.00 99
20260506090421 35 29 0.0 0.9 0.00 0.00 0.00 99
20260506085918 36 35 0.0 0.9 0.00 0.00 0.00 99
20260506085414 36 45 0.0 0.9 0.00 0.00 0.00 99
20260506084911 35 48 0.0 0.9 0.00 0.00 0.00 99
20260506084408 35 49 0.0 0.9 0.00 0.00 0.00 99
20260506083904 35 20 0.0 0.9 0.00 0.00 0.00 99
20260506083401 35 14 0.0 0.9 0.00 0.00 0.00 99
20260506082859 36 45 0.0 0.9 0.00 0.00 0.00 99
20260506082355 36 43 0.0 0.9 0.00 0.00 0.00 99
20260506081851 36 31 0.0 0.9 0.00 0.00 0.00 99
20260506081350 36 23 0.0 0.0 0.00 0.00 0.00 99
20260506080847 35 68 0.0 0.9 0.00 0.00 0.00 99
20260506080343 36 44 0.0 0.0 0.00 0.00 0.00 99
20260506073327 36 94 0.0 0.9 0.00 0.00 0.00 99
20260506072824 36 73 0.0 0.9 0.00 0.00 0.00 99
20260506072322 36 78 0.0 0.9 0.00 0.00 0.00 99
20260506071819 36 68 0.0 0.9 0.00 0.00 0.00 99
20260506071317 36 70 0.0 0.9 0.00 0.00 0.00 99
20260506070814 36 85 0.0 0.9 0.00 0.00 0.00 99
20260506070311 37 113 0.0 0.9 0.00 0.00 0.00 99
20260506062242 37 97 0.9 0.9 0.00 0.00 0.00 99
20260506061738 37 104 0.0 0.9 0.00 0.00 0.00 99
20260506061235 37 95 0.0 0.9 0.00 0.00 0.00 99
20260506060734 37 102 0.0 0.9 0.00 0.00 0.00 99
20260506060231 37 104 0.0 0.9 0.00 0.00 0.00 99